WA4FG Weather Reports


Display with metric or nautical units.
time (UTC)temp
F
wind
direction
speed
MPH
gust
MPH
rain 1hr
in
rain 24hr
in
rain mn
in
humidity
%
barometer
mb
20260903154012 92 309 0.0 0.0 0.00 0.00 0.00 59 1017.3
20260903153510 92 309 0.0 0.0 0.00 0.00 0.00 61 1017.4
20260903152506 92 309 0.0 0.0 0.00 0.00 0.00 63 1017.4
20260903152017 92 309 0.0 0.0 0.00 0.00 0.00 61 1017.3
20260903151505 91 310 0.0 0.0 0.00 0.00 0.00 69 1017.3
20260903150432 90 310 0.0 0.0 0.00 0.00 0.00 73 1017.2
20260903145430 89 310 0.0 0.0 0.00 0.00 0.00 68 1017.2
20260903144928 89 309 0.0 0.0 0.00 0.00 0.00 73 1017.2
20260903144406 88 309 0.0 0.0 0.00 0.00 0.00 70 1017.1
20260903143834 88 309 0.0 0.0 0.00 0.00 0.00 71 1017.1
20260903143307 87 309 0.0 0.0 0.00 0.00 0.00 72 1017.1
20260903142803 86 312 0.0 0.0 0.00 0.00 0.00 75 1017.1
20260903142243 85 312 0.0 0.0 0.00 0.00 0.00 80 1017.1
20260903141742 84 312 0.0 0.0 0.00 0.00 0.00 83 1017.1
20260903141244 83 312 0.0 0.0 0.00 0.00 0.00 84 1017.1
20260903140701 82 312 0.0 0.0 0.00 0.00 0.00 86 1017.1
20260903135638 81 312 0.0 0.0 0.00 0.00 0.00 90 1017.1
20260903134634 79 312 0.0 0.0 0.00 0.00 0.00 94 1017.2
20260903134136 79 312 0.0 0.0 0.00 0.00 0.00 96 1017.2
20260903133554 78 312 0.0 0.0 0.00 0.00 0.00 97 1017.2
20260903133052 78 312 0.0 0.0 0.00 0.00 0.00 98 1017.2
20260903132531 78 312 0.0 0.0 0.00 0.00 0.00 98 1017.3
20260903132028 77 312 0.0 0.0 0.00 0.00 0.00 99 1017.3
20260903131526 77 312 0.0 0.0 0.00 0.00 0.00 99 1017.4
20260903131007 77 312 0.0 0.0 0.00 0.00 0.00 99 1017.3
20260903125941 76 312 0.0 0.0 0.00 0.00 0.00 100 1017.2
20260903125414 76 312 0.0 0.0 0.00 0.00 0.00 99 1017.2
20260903124911 76 312 0.0 0.0 0.00 0.00 0.00 99 1017.2
20260903124350 75 312 0.0 0.0 0.00 0.00 0.00 99 1017.1
20260903123834 75 312 0.0 0.0 0.00 0.00 0.00 99 1017.0
20260903123334 75 312 0.0 0.0 0.00 0.00 0.00 99 1017.2
20260903122245 75 312 0.0 0.0 0.00 0.00 0.00 99 1017.1
20260903121715 75 312 0.0 0.0 0.00 0.00 0.00 99 1017.0
20260903120134 75 312 0.0 0.0 0.00 0.00 0.00 99 1017.1
20260903115630 75 312 0.0 0.0 0.00 0.00 0.00 99 1017.1
20260903114555 75 312 0.0 0.0 0.00 0.00 0.00 99 1017.1
20260903114054 75 312 0.0 0.0 0.00 0.00 0.00 99 1017.0
20260903113553 75 312 0.0 0.0 0.00 0.00 0.00 99 1017.0
20260903113052 75 312 0.0 0.0 0.00 0.00 0.00 99 1016.9
20260903112549 75 312 0.0 0.0 0.00 0.00 0.00 99 1016.8
20260903111520 75 312 0.0 0.0 0.00 0.00 0.00 99 1016.6
20260903110952 75 312 0.0 0.0 0.00 0.00 0.00 99 1016.6
20260903110448 75 312 0.0 0.0 0.00 0.00 0.00 98 1016.5
20260903105930 75 312 0.0 0.0 0.00 0.00 0.00 98 1016.5
20260903105427 75 312 0.0 0.0 0.00 0.00 0.00 98 1016.5
20260903104913 75 312 0.0 0.0 0.00 0.00 0.00 98 1016.5
20260903104359 75 312 0.0 0.0 0.00 0.00 0.00 98 1016.4
20260903103313 75 312 0.0 0.0 0.00 0.00 0.00 98 1016.4
20260903102203 75 312 0.0 0.0 0.00 0.00 0.00 98 1016.4
20260903101153 75 312 0.0 0.0 0.00 0.00 0.00 98 1016.4
20260903100653 75 312 0.0 0.0 0.00 0.00 0.00 98 1016.4
20260903100136 75 312 0.0 0.0 0.00 0.00 0.00 98 1016.4
20260903095635 75 312 0.0 0.0 0.00 0.00 0.00 98 1016.3
20260903095134 75 312 0.0 0.0 0.00 0.00 0.00 98 1016.3
20260903094606 75 312 0.0 0.0 0.00 0.00 0.00 98 1016.3
20260903094103 75 312 0.0 0.0 0.00 0.00 0.00 98 1016.4
20260903093535 75 312 0.0 0.0 0.00 0.00 0.00 97 1016.4
20260903093032 75 312 0.0 0.0 0.00 0.00 0.00 97 1016.4
20260903092515 76 312 0.0 0.0 0.00 0.00 0.00 97 1016.3
20260903092011 76 312 0.0 0.0 0.00 0.00 0.00 97 1016.3
20260903091513 76 312 0.0 0.0 0.00 0.00 0.00 97 1016.2
20260903091006 76 312 0.0 0.0 0.00 0.00 0.00 97 1016.3
20260903090516 76 312 0.0 0.0 0.00 0.00 0.00 97 1016.2
20260903085948 76 312 0.0 0.0 0.00 0.00 0.00 97 1016.2
20260903085449 76 312 0.0 0.0 0.00 0.00 0.00 97 1016.3
20260903084923 76 312 0.0 0.0 0.00 0.00 0.00 97 1016.3
20260903083850 76 312 0.0 0.0 0.00 0.00 0.00 97 1016.3
20260903082333 76 312 0.0 0.0 0.00 0.00 0.00 97 1016.3
20260903081807 76 312 0.0 0.0 0.00 0.00 0.00 96 1016.3
20260903081240 76 312 0.0 0.0 0.00 0.00 0.00 96 1016.3
20260903080712 76 312 0.0 0.0 0.00 0.00 0.00 96 1016.3
20260903080207 76 312 0.0 0.0 0.00 0.00 0.00 96 1016.3
20260903075641 76 312 0.0 0.0 0.00 0.00 0.00 96 1016.2
20260903075117 76 312 0.0 0.0 0.00 0.00 0.00 96 1016.1
20260903074621 76 312 0.0 0.0 0.00 0.00 0.00 96 1016.1
20260903074059 76 312 0.0 0.0 0.00 0.00 0.00 96 1016.1
20260903073557 76 312 0.0 0.0 0.00 0.00 0.00 95 1016.2
20260903072539 77 312 0.0 0.0 0.00 0.00 0.00 95 1016.2
20260903072012 77 312 0.0 0.0 0.00 0.00 0.00 95 1016.2
20260903071455 77 312 0.0 0.0 0.00 0.00 0.00 95 1016.2
20260903070954 77 312 0.0 0.0 0.00 0.00 0.00 95 1016.3
20260903070453 77 312 0.0 0.0 0.00 0.00 0.00 95 1016.2
20260903065947 77 312 0.0 0.0 0.00 0.00 0.00 95 1016.2
20260903065446 77 312 0.0 0.0 0.00 0.00 0.00 95 1016.2
20260903064403 77 312 0.0 0.0 0.00 0.00 0.00 94 1016.3
20260903063905 77 312 0.0 0.0 0.00 0.00 0.00 94 1016.4
20260903063401 77 312 0.0 0.0 0.00 0.00 0.00 94 1016.4
20260903062915 77 312 0.0 0.0 0.00 0.00 0.00 94 1016.4
20260903061852 77 312 0.0 0.0 0.00 0.00 0.00 94 1016.5
20260903061335 77 312 0.0 0.0 0.00 0.00 0.00 94 1016.5
20260903060836 77 312 0.0 0.0 0.00 0.00 0.00 93 1016.5
20260903060335 77 312 0.0 0.0 0.00 0.00 0.00 93 1016.4
20260903055808 77 312 0.0 0.0 0.00 0.00 0.00 93 1016.4
20260903055306 77 312 0.0 0.0 0.00 0.00 0.00 93 1016.4
20260903054237 78 312 0.0 0.0 0.00 0.00 0.00 93 1016.4
20260903053714 78 312 0.0 0.0 0.00 0.00 0.00 92 1016.4
20260903053212 78 312 0.0 0.0 0.00 0.00 0.00 92 1016.4
20260903052657 78 312 0.0 0.0 0.00 0.00 0.00 92 1016.4
20260903052155 78 312 0.0 0.0 0.00 0.00 0.00 91 1016.4
20260903051706 78 312 0.0 0.0 0.00 0.00 0.00 91 1016.4
20260903050622 78 312 0.0 0.0 0.00 0.00 0.00 91 1016.4
20260903050112 78 312 0.0 0.0 0.00 0.00 0.00 91 1016.4
20260903045559 78 312 0.0 0.0 0.00 0.00 0.00 91 1016.5
20260903045041 78 312 0.0 0.0 0.00 0.00 0.00 91 1016.5
20260903044536 78 312 0.0 0.0 0.00 0.00 0.00 90 1016.5
20260903044019 79 312 0.0 0.0 0.00 0.00 0.00 90 1016.4
20260903043502 79 312 0.0 0.0 0.00 0.00 0.00 90 1016.4
20260903042420 79 312 0.0 0.0 0.00 0.00 0.00 89 1016.4
20260903041937 79 312 0.0 0.0 0.00 0.00 0.00 89 1016.4
20260903041419 79 312 0.0 0.0 0.00 0.00 0.00 88 1016.4
20260903040855 79 312 0.0 0.0 0.00 0.00 0.00 88 1016.4
20260903040328 79 312 0.0 0.0 0.00 0.00 0.00 88 1016.4
20260903035808 79 312 0.0 0.0 0.00 0.00 0.00 88 1016.4
20260903035253 80 312 0.0 0.0 0.00 0.00 0.00 88 1016.5
20260903034752 80 312 0.0 0.0 0.00 0.00 0.00 87 1016.5
20260903034252 80 312 0.0 0.0 0.00 0.00 0.00 87 1016.5
20260903033245 80 312 0.0 0.0 0.00 0.00 0.00 87 1016.5
20260903032721 80 312 0.0 0.0 0.00 0.00 0.00 86 1016.5
20260903032158 80 312 0.0 0.0 0.00 0.00 0.00 86 1016.5
20260903030650 80 312 0.0 0.0 0.00 0.00 0.00 85 1016.4
20260903030124 80 312 0.0 0.0 0.00 0.00 0.00 85 1016.5
20260903025624 80 312 0.0 0.0 0.00 0.00 0.00 84 1016.4
20260903025122 80 312 0.0 0.0 0.00 0.00 0.00 84 1016.4
20260903024622 80 312 0.0 0.0 0.00 0.00 0.00 84 1016.4
20260903024122 81 312 0.0 0.0 0.00 0.00 0.00 84 1016.4
20260903023627 81 312 0.0 0.0 0.00 0.00 0.00 83 1016.4
20260903023053 81 312 0.0 0.0 0.00 0.00 0.00 83 1016.4
20260903022526 81 312 0.0 0.0 0.00 0.00 0.00 82 1016.4
20260903021959 81 312 0.0 0.0 0.00 0.00 0.00 83 1016.3
20260903021432 81 312 0.0 0.0 0.00 0.00 0.00 82 1016.3
20260903020427 81 312 0.0 0.0 0.00 0.00 0.00 82 1016.2
20260903015922 82 312 0.0 0.0 0.00 0.00 0.00 81 1016.3
20260903015422 82 312 0.0 0.0 0.00 0.00 0.00 81 1016.2
20260903014923 82 312 0.0 0.0 0.00 0.00 0.00 81 1016.2
20260903014355 82 312 0.0 0.0 0.00 0.00 0.00 81 1016.2
20260903013848 82 312 0.0 0.0 0.00 0.00 0.00 80 1015.9
20260903013344 83 312 0.0 0.0 0.00 0.00 0.00 81 1015.8
20260903012854 83 312 0.0 0.0 0.00 0.00 0.00 82 1015.7
20260903012350 83 312 0.0 0.0 0.00 0.00 0.00 81 1015.7
20260903011835 83 312 0.0 0.0 0.00 0.00 0.00 81 1015.7
20260903011324 83 312 0.0 0.0 0.00 0.00 0.00 81 1015.7
20260903010827 84 312 0.0 0.0 0.00 0.00 0.00 80 1015.5
20260903005228 84 312 0.0 0.0 0.00 0.00 0.00 77 1015.5
20260903004727 85 312 0.0 0.0 0.00 0.00 0.00 76 1015.5
20260903004212 85 312 0.0 0.0 0.00 0.00 0.00 76 1015.5
20260903003714 85 312 0.0 0.0 0.00 0.00 0.00 75 1015.4
20260903002712 86 312 0.0 0.0 0.00 0.00 0.00 76 1015.4
20260903001708 87 312 0.0 0.0 0.00 0.00 0.00 72 1015.4
20260903000635 87 312 0.0 0.0 0.00 0.00 0.00 70 1015.4
20260903000136 88 312 0.0 0.0 0.00 0.00 0.00 68 1015.5
20260902235608 88 312 0.0 0.0 0.00 0.00 0.00 67 1015.5
20260902234551 89 312 0.0 0.0 0.00 0.00 0.00 66 1015.4
20260902234035 89 312 0.0 0.0 0.00 0.00 0.00 66 1015.3
20260902233525 90 312 0.0 0.0 0.00 0.00 0.00 65 1015.4
20260902232958 90 312 0.0 0.0 0.00 0.00 0.00 63 1015.3
20260902231930 90 312 0.0 0.0 0.00 0.00 0.00 64 1015.2
20260902231414 90 312 0.0 0.0 0.00 0.00 0.00 63 1015.2
20260902230858 91 312 0.0 0.0 0.00 0.00 0.00 61 1015.1
20260902230348 91 312 0.0 4.0 0.00 0.00 0.00 62 1015.1
20260902225844 91 312 0.0 4.0 0.00 0.00 0.00 63 1015.0
20260902225320 91 225 0.0 0.0 0.00 0.00 0.00 63 1015.1
20260902224755 91 225 0.0 0.0 0.00 0.00 0.00 61 1015.1
20260902224256 92 225 0.0 0.0 0.00 0.00 0.00 60 1015.2
20260902223754 92 225 0.0 0.0 0.00 0.00 0.00 60 1015.1
20260902223252 92 225 0.0 0.0 0.00 0.00 0.00 59 1015.2
20260902222753 93 225 0.0 1.0 0.00 0.00 0.00 58 1015.3
20260902222248 93 225 0.0 1.0 0.00 0.00 0.00 55 1015.4
20260902221745 94 225 0.0 4.0 0.00 0.00 0.00 54 1015.4
20260902220708 95 217 0.0 4.0 0.00 0.00 0.00 50 1015.4
20260902215702 95 234 0.0 4.0 0.00 0.00 0.00 48 1015.5
20260902215159 95 210 0.0 2.0 0.00 0.00 0.00 47 1015.4
20260902214631 95 211 0.0 4.0 0.00 0.00 0.00 49 1015.4
20260902214128 95 201 0.0 4.0 0.00 0.00 0.00 47 1015.3
20260902213603 95 202 0.0 1.0 0.00 0.00 0.00 47 1015.2
20260902213053 96 149 0.0 1.0 0.00 0.00 0.00 48 1015.3
20260902212549 96 306 0.0 0.0 0.00 0.00 0.00 47 1015.3
20260902212035 96 306 0.0 1.0 0.00 0.00 0.00 45 1015.4
20260902211456 96 308 0.0 1.0 0.00 0.00 0.00 44 1015.4
20260902210928 96 197 0.0 1.0 0.00 0.00 0.00 46 1015.4
20260902210434 96 241 0.0 3.0 0.00 0.00 0.00 47 1015.5
20260902205927 96 227 0.0 4.0 0.00 0.00 0.00 50 1015.5
20260902205431 96 163 0.0 2.0 0.00 0.00 0.00 45 1015.6
20260902204403 96 244 0.0 2.0 0.00 0.00 0.00 46 1015.5
20260902203402 96 261 0.0 1.0 0.00 0.00 0.00 48 1015.6
20260902202845 96 261 0.0 1.0 0.00 0.00 0.00 49 1015.7
20260902202339 97 236 0.0 2.0 0.00 0.00 0.00 47 1015.7
20260902201826 97 232 0.0 1.0 0.00 0.00 0.00 46 1015.8
20260902201300 97 250 0.0 0.0 0.00 0.00 0.00 47 1015.8
20260902200744 97 250 0.0 1.0 0.00 0.00 0.00 45 1015.9
20260902200243 97 251 0.0 1.0 0.00 0.00 0.00 45 1015.9
20260902195725 97 230 0.0 1.0 0.00 0.00 0.00 46 1016.1
20260902195145 97 134 0.0 0.0 0.00 0.00 0.00 48 1016.1
20260902194645 97 101 0.0 0.0 0.00 0.00 0.00 45 1016.3
20260902194120 97 101 0.0 0.0 0.00 0.00 0.00 45 1016.4
20260902193115 98 90 0.0 0.0 0.00 0.00 0.00 48 1016.6
20260902192615 98 90 0.0 0.0 0.00 0.00 0.00 45 1016.7
20260902192109 98 90 0.0 0.0 0.00 0.00 0.00 46 1016.7
20260902191606 98 207 0.0 2.0 0.00 0.00 0.00 45 1016.8
20260902190605 98 174 0.0 4.0 0.00 0.00 0.00 46 1016.9
20260902190108 98 174 0.0 4.0 0.00 0.00 0.00 45 1017.0
20260902185045 98 167 0.0 1.0 0.00 0.00 0.00 46 1017.2
20260902184545 98 167 0.0 1.0 0.00 0.00 0.00 46 1017.2
20260902184011 98 186 0.0 0.0 0.00 0.00 0.00 49 1017.3
20260902183450 98 187 0.0 0.0 0.00 0.00 0.00 46 1017.3
20260902182924 98 267 0.0 0.0 0.00 0.00 0.00 46 1017.4
20260902182356 97 267 0.0 1.0 0.00 0.00 0.00 47 1017.4
20260902181846 97 167 0.0 1.0 0.00 0.00 0.00 50 1017.6
20260902181342 96 169 0.0 4.0 0.00 0.00 0.00 51 1017.6
20260902180818 95 169 0.0 4.0 0.00 0.00 0.00 49 1017.7
20260902180255 95 313 0.0 0.0 0.00 0.00 0.00 57 1017.7
20260902175733 94 211 0.0 0.0 0.00 0.00 0.00 52 1017.8
20260902175209 94 211 0.0 0.0 0.00 0.00 0.00 56 1017.8
20260902174657 94 211 0.0 0.0 0.00 0.00 0.00 52 1017.9
20260902174149 95 211 0.0 0.0 0.00 0.00 0.00 52 1017.9
20260902173702 96 178 0.0 0.0 0.00 0.00 0.00 51 1017.9
20260902173118 97 179 0.0 0.0 0.00 0.00 0.00 50 1018.0
20260902172614 98 179 0.0 0.0 0.00 0.00 0.00 52 1018.0
20260902172114 97 181 0.0 0.0 0.00 0.00 0.00 50 1018.1
20260902171550 97 178 0.0 1.0 0.00 0.00 0.00 50 1018.2
20260902171025 97 177 0.0 1.0 0.00 0.00 0.00 50 1018.3
20260902170533 97 175 0.0 4.0 0.00 0.00 0.00 51 1018.4
20260902165955 96 203 0.0 4.0 0.00 0.00 0.00 50 1018.5
20260902165431 96 107 0.0 0.0 0.00 0.00 0.00 51 1018.6
20260902164933 96 170 0.0 0.0 0.00 0.00 0.00 51 1018.6
20260902163847 96 147 0.0 0.0 0.00 0.00 0.00 51 1018.8
20260902163332 95 144 0.0 0.0 0.00 0.00 0.00 50 1018.9
20260902162825 95 209 0.0 0.0 0.00 0.00 0.00 54 1018.9
20260902162324 95 219 0.0 0.0 0.00 0.00 0.00 52 1018.9
20260902161831 95 215 0.0 0.0 0.00 0.00 0.00 52 1019.0
20260902160800 94 219 0.0 0.0 0.00 0.00 0.00 54 1019.1
20260902160258 94 140 0.0 0.0 0.00 0.00 0.00 52 1019.1
20260902155238 93 132 0.0 0.0 0.00 0.00 0.00 52 1019.2
20260902154723 93 132 0.0 0.0 0.00 0.00 0.00 64 1019.2
20260902154229 93 164 0.0 0.0 0.00 0.00 0.00 57 1019.2